,,PA_Meas_PMT16A,,PR_Meas_QMR101_102,,RH_Meas_QMH101,,SR_Meas_QMS101,,TA_Meas_QMH101,,GenWind,,GenWind,
time,status,PA,status,PR,status,RH,status,SR,status,TA,status,DirAvg,status,SpdAvg,
2016-06-03, 07:25:04,VALID,918.329,VALID,0,VALID,91.2218,VALID,119.475,VALID,20.1108,VALID,157,VALID,0,
2016-06-03, 07:26:04,VALID,918.375,VALID,0,VALID,90.5433,VALID,124.417,VALID,20.1903,VALID,171,VALID,0,
2016-06-03, 07:27:04,VALID,918.396,VALID,0,VALID,86.1827,VALID,133.549,VALID,20.2278,VALID,148,VALID,0,
2016-06-03, 07:28:04,VALID,918.396,VALID,0,VALID,84.1549,VALID,129.574,VALID,20.3253,VALID,155,VALID,0,
2016-06-03, 07:29:04,VALID,918.381,VALID,0,VALID,83.6822,VALID,123.342,VALID,20.4033,VALID,142,VALID,0,
2016-06-03, 07:43:04,VALID,918.571,VALID,0,VALID,85.0392,VALID,119.797,VALID,20.9136,VALID,115,VALID,0,
2016-06-03, 07:44:04,VALID,918.609,VALID,0,VALID,85.8473,VALID,123.235,VALID,20.912,VALID,117,VALID,0,
2016-06-03, 07:45:04,VALID,918.643,VALID,0,VALID,82.493,VALID,125.384,VALID,20.8941,VALID,115,VALID,0,
2016-06-03, 07:46:04,VALID,918.634,VALID,0,VALID,91.5344,VALID,126.888,VALID,20.9316,VALID,126,VALID,0,
2016-06-03, 07:47:04,VALID,918.656,VALID,0,VALID,85.6567,VALID,128.714,VALID,20.9511,VALID,131,VALID,0,
2016-06-03, 07:48:04,VALID,918.661,VALID,0,VALID,83.8728,VALID,131.508,VALID,20.9511,VALID,111,VALID,0,
2016-06-03, 07:49:04,VALID,918.681,VALID,0,VALID,85.5652,VALID,132.153,VALID,21.0096,VALID,110,VALID,0,
2016-06-03, 07:50:04,VALID,918.698,VALID,0,VALID,82.4015,VALID,130.111,VALID,21.0681,VALID,139,VALID,0,
2016-06-03, 07:51:04,VALID,918.711,VALID,0,VALID,81.7611,VALID,129.144,VALID,21.0291,VALID,146,VALID,0,
2016-06-03, 07:52:04,VALID,918.738,VALID,0,VALID,83.1562,VALID,128.607,VALID,20.9706,VALID,146,VALID,0,
2016-06-03, 07:53:04,VALID,918.724,VALID,0,VALID,85.7863,VALID,128.714,VALID,20.9706,VALID,146,VALID,0,
2016-06-03, 07:54:04,VALID,918.739,VALID,0,VALID,83.0952,VALID,129.144,VALID,20.9511,VALID,146,VALID,0,
2016-06-03, 07:55:04,VALID,918.744,VALID,0,VALID,85.367,VALID,130.219,VALID,20.9316,VALID,146,VALID,0,
2016-06-03, 07:56:04,VALID,918.758,VALID,0,VALID,90.9016,VALID,131.401,VALID,20.912,VALID,125,VALID,0,
2016-06-03, 07:57:04,VALID,918.787,VALID,0,VALID,91.9231,VALID,133.012,VALID,20.873,VALID,125,VALID,0,
2016-06-03, 07:58:04,VALID,918.844,VALID,0,VALID,90.4747,VALID,134.194,VALID,20.873,VALID,129,VALID,0,
2016-06-03, 07:59:04,VALID,918.828,VALID,0,VALID,90.7491,VALID,134.946,VALID,20.8925,VALID,141,VALID,0,
2016-06-03, 08:00:04,VALID,918.858,VALID,0,VALID,88.6451,VALID,136.235,VALID,20.9316,VALID,141,VALID,0,
2016-06-03, 08:01:04,VALID,918.871,VALID,0,VALID,88.8204,VALID,138.277,VALID,21.0096,VALID,141,VALID,0,
2016-06-03, 08:02:04,VALID,918.877,VALID,0,VALID,87.7836,VALID,139.781,VALID,21.0486,VALID,109,VALID,0,
2016-06-03, 08:03:04,VALID,918.897,VALID,0,VALID,85.6643,VALID,139.244,VALID,21.086,VALID,105,VALID,0,
2016-06-03, 08:04:04,VALID,918.887,VALID,0,VALID,88.0581,VALID,139.351,VALID,21.1461,VALID,126,VALID,0,
2016-06-03, 08:05:04,VALID,918.927,VALID,0,VALID,91.8317,VALID,141.93,VALID,21.2047,VALID,102,VALID,0,
2016-06-03, 08:06:04,VALID,918.93,VALID,0,VALID,97.5035,VALID,146.227,VALID,21.2437,VALID,92,VALID,0,
2016-06-03, 08:07:04,VALID,918.94,VALID,0,VALID,91.6868,VALID,151.17,VALID,21.2632,VALID,83,VALID,0,
2016-06-03, 08:08:04,VALID,918.964,VALID,0,VALID,87.3186,VALID,157.079,VALID,21.3022,VALID,101,VALID,0,
2016-06-03, 08:09:04,VALID,918.962,VALID,0,VALID,89.4303,VALID,164.063,VALID,21.3217,VALID,91,VALID,0,
2016-06-03, 08:10:04,VALID,918.967,VALID,0,VALID,89.4227,VALID,168.36,VALID,21.3608,VALID,87,VALID,0,
2016-06-03, 08:11:04,VALID,918.971,VALID,0,VALID,87.9285,VALID,164.17,VALID,21.4014,VALID,85,VALID,0,
2016-06-03, 08:12:04,VALID,918.976,VALID,0,VALID,82.3329,VALID,160.732,VALID,21.3803,VALID,101,VALID,0,
2016-06-03, 08:13:04,VALID,918.97,VALID,0,VALID,83.6441,VALID,156.972,VALID,21.3981,VALID,115,VALID,0,
2016-06-03, 08:14:04,VALID,918.989,VALID,0,VALID,81.9365,VALID,153.963,VALID,21.3981,VALID,118,VALID,0,
2016-06-03, 08:15:04,VALID,919.008,VALID,0,VALID,82.9656,VALID,152.244,VALID,21.4177,VALID,130,VALID,0,
2016-06-03, 08:16:04,VALID,919.048,VALID,0,VALID,82.9046,VALID,151.599,VALID,21.4177,VALID,149,VALID,0,
2016-06-03, 08:17:04,VALID,919.082,VALID,0,VALID,81.1741,VALID,151.385,VALID,21.4177,VALID,141,VALID,0,
2016-06-03, 08:18:04,VALID,919.095,VALID,0,VALID,81.4486,VALID,150.955,VALID,21.4177,VALID,144,VALID,0,
2016-06-03, 08:19:04,VALID,919.115,VALID,0,VALID,81.7154,VALID,150.095,VALID,21.4372,VALID,142,VALID,0,
2016-06-03, 08:20:04,VALID,919.129,VALID,0,VALID,81.662,VALID,148.054,VALID,21.4177,VALID,134,VALID,0,
2016-06-03, 08:21:04,VALID,919.147,VALID,0,VALID,85.4814,VALID,144.723,VALID,21.4177,VALID,136,VALID,0,
2016-06-03, 08:22:04,VALID,919.159,VALID,0,VALID,85.0849,VALID,141.07,VALID,21.4372,VALID,130,VALID,0,
2016-06-03, 08:23:04,VALID,919.152,VALID,0,VALID,84.4598,VALID,136.987,VALID,21.4177,VALID,118,VALID,0,
2016-06-03, 08:24:04,VALID,919.194,VALID,0,VALID,84.4217,VALID,133.227,VALID,21.4372,VALID,142,VALID,0,
2016-06-03, 08:25:04,VALID,919.159,VALID,0,VALID,85.4661,VALID,130.434,VALID,21.4567,VALID,149,VALID,0,
2016-06-03, 08:26:04,VALID,919.185,VALID,0,VALID,81.5019,VALID,128.822,VALID,21.4372,VALID,148,VALID,0,
2016-06-03, 08:27:04,VALID,919.186,VALID,0,VALID,87.2195,VALID,128.285,VALID,21.4583,VALID,139,VALID,0,
2016-06-03, 08:28:04,VALID,919.167,VALID,0,VALID,82.9656,VALID,128.5,VALID,21.3981,VALID,138,VALID,0,
2016-06-03, 08:29:04,VALID,919.191,VALID,0,VALID,83.4002,VALID,129.037,VALID,21.3981,VALID,149,VALID,0,
2016-06-03, 08:30:04,VALID,919.19,VALID,0,VALID,82.249,VALID,129.144,VALID,21.3786,VALID,139,VALID,0,
2016-06-03, 08:31:04,VALID,919.196,VALID,0,VALID,84.2845,VALID,129.037,VALID,21.3591,VALID,131,VALID,0,
2016-06-03, 08:32:04,VALID,919.208,VALID,0,VALID,85.1841,VALID,128.5,VALID,21.3591,VALID,133,VALID,0,
2016-06-03, 08:33:04,VALID,919.184,VALID,0,VALID,85.1841,VALID,128.177,VALID,21.3591,VALID,125,VALID,0,
2016-06-03, 08:34:04,VALID,919.252,VALID,0,VALID,84.1091,VALID,128.177,VALID,21.3575,VALID,115,VALID,0,
2016-06-03, 08:35:04,VALID,919.26,VALID,0,VALID,86.2894,VALID,128.177,VALID,21.3965,VALID,118,VALID,0,
2016-06-03, 08:36:04,VALID,919.281,VALID,0,VALID,84.4522,VALID,128.5,VALID,21.4372,VALID,123,VALID,0,
2016-06-03, 08:37:04,VALID,919.299,VALID,0,VALID,84.2692,VALID,128.822,VALID,21.4372,VALID,123,VALID,0,
2016-06-03, 08:38:04,VALID,919.294,VALID,0,VALID,87.067,VALID,129.144,VALID,21.4957,VALID,123,VALID,0,
2016-06-03, 08:39:04,VALID,919.331,VALID,0,VALID,83.4612,VALID,129.467,VALID,21.4941,VALID,123,VALID,0,
2016-06-03, 08:40:04,VALID,919.332,VALID,0,VALID,85.7634,VALID,130.219,VALID,21.5737,VALID,123,VALID,0,
2016-06-03, 08:41:04,VALID,919.389,VALID,0,VALID,83.4459,VALID,131.186,VALID,21.6323,VALID,123,VALID,0,
2016-06-03, 08:42:04,VALID,919.439,VALID,0,VALID,81.9593,VALID,132.582,VALID,21.7103,VALID,123,VALID,0,
2016-06-03, 08:43:04,VALID,919.429,VALID,0,VALID,80.7015,VALID,134.301,VALID,21.8079,VALID,123,VALID,0,
2016-06-03, 08:44:04,VALID,919.45,VALID,0,VALID,79.8324,VALID,136.558,VALID,21.9054,VALID,123,VALID,0,
2016-06-03, 08:45:04,VALID,919.494,VALID,0,VALID,81.5401,VALID,139.136,VALID,22.003,VALID,123,VALID,0,
2016-06-03, 08:46:04,VALID,919.502,VALID,0,VALID,79.9391,VALID,142.037,VALID,22.0403,VALID,123,VALID,0,
2016-06-03, 08:47:04,VALID,919.549,VALID,0,VALID,79.7714,VALID,145.26,VALID,22.1786,VALID,123,VALID,0,
2016-06-03, 08:48:04,VALID,919.592,VALID,0,VALID,82.1957,VALID,148.699,VALID,22.2957,VALID,123,VALID,0,
2016-06-03, 08:49:04,VALID,919.598,VALID,0,VALID,82.0813,VALID,152.674,VALID,22.333,VALID,100,VALID,0,
2016-06-03, 08:50:04,VALID,919.633,VALID,0,VALID,84.9249,VALID,157.186,VALID,22.372,VALID,101,VALID,0,
2016-06-03, 08:51:04,VALID,919.627,VALID,0,VALID,85.4509,VALID,161.699,VALID,22.3347,VALID,100,VALID,0,
2016-06-03, 08:52:04,VALID,919.627,VALID,0,VALID,93.4783,VALID,165.352,VALID,22.2762,VALID,101,VALID,0,
2016-06-03, 08:53:04,VALID,919.661,VALID,0,VALID,82.0508,VALID,168.468,VALID,22.2354,VALID,101,VALID,0,
2016-06-03, 08:54:04,VALID,919.649,VALID,0,VALID,82.7674,VALID,171.691,VALID,22.2957,VALID,100,VALID,0,
2016-06-03, 08:55:04,VALID,919.684,VALID,0,VALID,85.2908,VALID,175.666,VALID,22.3737,VALID,101,VALID,0,
2016-06-03, 08:56:04,VALID,919.73,VALID,0,VALID,94.8277,VALID,180.071,VALID,22.3933,VALID,20,VALID,0,
2016-06-03, 08:57:04,VALID,919.776,VALID,0,VALID,87.4711,VALID,184.584,VALID,22.3135,VALID,7,VALID,0,
2016-06-03, 08:58:04,VALID,919.754,VALID,0,VALID,89.8115,VALID,189.096,VALID,22.1981,VALID,25,VALID,0,
2016-06-03, 08:59:04,VALID,919.719,VALID,0,VALID,85.0621,VALID,194.361,VALID,22.1201,VALID,24,VALID,0,
2016-06-03, 09:00:04,VALID,919.7,VALID,0,VALID,87.2195,VALID,200.055,VALID,22.1217,VALID,25,VALID,0,
2016-06-03, 09:01:04,VALID,919.708,VALID,0,VALID,86.1294,VALID,204.89,VALID,22.042,VALID,26,VALID,0,
2016-06-03, 09:02:04,VALID,919.646,VALID,0,VALID,98.7461,VALID,206.824,VALID,22.003,VALID,26,VALID,0,
2016-06-03, 09:03:04,VALID,919.683,VALID,0,VALID,103.328,VALID,206.287,VALID,21.9233,VALID,45,VALID,0,
2016-06-03, 09:04:04,VALID,919.684,VALID,0,VALID,100.865,VALID,203.708,VALID,21.9054,VALID,45,VALID,0,
2016-06-03, 09:05:04,VALID,919.718,VALID,0,VALID,94.6676,VALID,199.948,VALID,21.9266,VALID,46,VALID,0,
2016-06-03, 09:06:04,VALID,919.699,VALID,0,VALID,85.8778,VALID,195.865,VALID,21.9249,VALID,47,VALID,0,
2016-06-03, 09:07:04,VALID,919.69,VALID,0,VALID,90.2841,VALID,191.997,VALID,22.0225,VALID,47,VALID,0,
2016-06-03, 09:08:04,VALID,919.673,VALID,0,VALID,83.8423,VALID,188.559,VALID,22.1184,VALID,46,VALID,0,
2016-06-03, 09:09:04,VALID,919.691,VALID,0,VALID,81.9212,VALID,185.766,VALID,22.2371,VALID,47,VALID,0,
2016-06-03, 09:10:04,VALID,919.692,VALID,0,VALID,83.2096,VALID,184.906,VALID,22.3542,VALID,47,VALID,0,
2016-06-03, 09:11:04,VALID,919.701,VALID,0,VALID,83.5755,VALID,186.196,VALID,22.4908,VALID,47,VALID,0,
2016-06-03, 09:12:04,VALID,919.686,VALID,0,VALID,83.6975,VALID,189.096,VALID,22.647,VALID,47,VALID,0,
2016-06-03, 09:13:04,VALID,919.694,VALID,0,VALID,83.5221,VALID,193.179,VALID,22.7818,VALID,47,VALID,0,
2016-06-03, 09:14:04,VALID,919.671,VALID,0,VALID,80.9378,VALID,197.692,VALID,22.8599,VALID,47,VALID,0,
2016-06-03, 09:15:04,VALID,919.72,VALID,0,VALID,80.9683,VALID,202.527,VALID,22.8989,VALID,47,VALID,0,
2016-06-03, 09:16:04,VALID,919.698,VALID,0,VALID,80.4804,VALID,207.254,VALID,22.8582,VALID,47,VALID,0,
2016-06-03, 09:17:04,VALID,919.689,VALID,0,VALID,77.7817,VALID,212.841,VALID,22.8989,VALID,47,VALID,0,
2016-06-03, 09:18:04,VALID,919.684,VALID,0,VALID,77.8198,VALID,220.792,VALID,22.9362,VALID,47,VALID,0,
2016-06-03, 09:19:04,VALID,919.692,VALID,0,VALID,77.1871,VALID,230.246,VALID,22.9575,VALID,47,VALID,0,
2016-06-03, 09:20:04,VALID,919.722,VALID,0,VALID,76.562,VALID,241.313,VALID,22.9948,VALID,47,VALID,0,
2016-06-03, 09:21:04,VALID,919.734,VALID,0,VALID,74.5418,VALID,256.784,VALID,23.0551,VALID,47,VALID,0,
2016-06-03, 09:22:04,VALID,919.714,VALID,0,VALID,74.374,VALID,251.197,VALID,23.1331,VALID,47,VALID,0,
2016-06-03, 09:23:04,VALID,919.703,VALID,0,VALID,74.3207,VALID,249.478,VALID,23.2077,VALID,47,VALID,0,
2016-06-03, 09:24:04,VALID,919.727,VALID,0,VALID,74.6942,VALID,248.726,VALID,23.3478,VALID,47,VALID,0,
2016-06-03, 09:25:04,VALID,919.684,VALID,0,VALID,76.6535,VALID,247.867,VALID,23.4845,VALID,47,VALID,0,
2016-06-03, 09:26:04,VALID,919.671,VALID,0,VALID,76.4552,VALID,245.181,VALID,23.6406,VALID,46,VALID,0,
2016-06-03, 09:27:04,VALID,919.638,VALID,0,VALID,76.9126,VALID,242.602,VALID,23.8377,VALID,47,VALID,0,
2016-06-03, 09:28:04,VALID,919.664,VALID,0,VALID,74.7095,VALID,239.594,VALID,23.8358,VALID,47,VALID,0,
2016-06-03, 09:29:04,VALID,919.627,VALID,0,VALID,75.1059,VALID,236.693,VALID,23.8944,VALID,47,VALID,0,
2016-06-03, 09:30:04,VALID,919.621,VALID,0,VALID,75.9292,VALID,233.577,VALID,23.8358,VALID,47,VALID,0,
2016-06-03, 09:31:04,VALID,919.613,VALID,0,VALID,75.3575,VALID,230.354,VALID,23.6992,VALID,46,VALID,0,
2016-06-03, 09:32:04,VALID,919.64,VALID,0,VALID,74.9153,VALID,227.668,VALID,23.6797,VALID,46,VALID,0,
2016-06-03, 09:33:04,VALID,919.637,VALID,0,VALID,75.8759,VALID,226.916,VALID,23.7382,VALID,46,VALID,0,
2016-06-03, 09:34:04,VALID,919.613,VALID,0,VALID,75.8301,VALID,229.065,VALID,23.8944,VALID,47,VALID,0,
2016-06-03, 09:35:04,VALID,919.658,VALID,0,VALID,74.9153,VALID,235.189,VALID,24.0506,VALID,47,VALID,0,
2016-06-03, 09:36:04,VALID,919.655,VALID,0,VALID,73.5736,VALID,244.858,VALID,24.0488,VALID,47,VALID,0,
2016-06-03, 09:37:04,VALID,919.647,VALID,0,VALID,74.7247,VALID,259.685,VALID,24.1659,VALID,47,VALID,0,
2016-06-03, 09:38:04,VALID,919.645,VALID,0,VALID,70.7529,VALID,293.099,VALID,24.244,VALID,47,VALID,0,
2016-06-03, 09:39:04,VALID,919.615,VALID,0,VALID,73.3525,VALID,300.513,VALID,24.283,VALID,47,VALID,0,
2016-06-03, 09:40:04,VALID,919.601,VALID,0,VALID,73.1467,VALID,311.472,VALID,24.3044,VALID,46,VALID,0,
2016-06-03, 09:41:04,VALID,919.652,VALID,0,VALID,74.5036,VALID,292.777,VALID,24.3026,VALID,47,VALID,0,
2016-06-03, 09:42:04,VALID,919.656,VALID,0,VALID,71.8736,VALID,287.942,VALID,24.3825,VALID,47,VALID,0,
2016-06-03, 09:43:04,VALID,919.627,VALID,0,VALID,65.4699,VALID,286.331,VALID,24.4587,VALID,23,VALID,0,
2016-06-03, 09:44:04,VALID,919.615,VALID,0,VALID,68.2829,VALID,286.223,VALID,24.5173,VALID,52,VALID,0,
2016-06-03, 09:45:04,INVALID - VALUE NOT AVAILABLE,0,VALID,0,VALID,69.8915,VALID,287.298,VALID,24.4783,INVALID,360,INVALID,0,
2016-06-03, 09:46:04,VALID,919.617,VALID,0,VALID,72.6512,VALID,289.769,VALID,24.4002,VALID,52,VALID,0,
2016-06-03, 09:47:04,VALID,919.632,VALID,0,VALID,75.1364,VALID,293.207,VALID,24.363,VALID,52,VALID,0,
2016-06-03, 09:48:04,VALID,919.605,VALID,0,VALID,74.7857,VALID,304.703,VALID,24.3221,VALID,52,VALID,0,
2016-06-03, 09:49:04,VALID,919.62,VALID,0,VALID,75.3041,VALID,381.738,VALID,24.2617,VALID,52,VALID,0,
2016-06-03, 09:50:04,VALID,919.62,VALID,0,VALID,76.3256,VALID,327.481,VALID,24.2049,VALID,52,VALID,0,
2016-06-03, 09:51:04,VALID,919.589,VALID,0,VALID,76.623,VALID,333.82,VALID,24.244,VALID,52,VALID,0,
2016-06-03, 09:52:04,VALID,919.592,VALID,0,VALID,77.6674,VALID,329.629,VALID,24.244,VALID,53,VALID,0,
2016-06-03, 09:53:04,VALID,919.581,VALID,0,VALID,77.2481,VALID,320.604,VALID,24.1641,VALID,52,VALID,0,
2016-06-03, 09:54:04,VALID,919.561,VALID,0,VALID,77.797,VALID,320.497,VALID,24.2245,VALID,52,VALID,0,
2016-06-03, 09:55:04,VALID,919.544,VALID,0,VALID,73.3296,VALID,326.943,VALID,24.3026,VALID,52,VALID,0,
2016-06-03, 09:56:04,VALID,919.542,VALID,0,VALID,74.6714,VALID,332.638,VALID,24.4606,VALID,52,VALID,0,
2016-06-03, 09:57:04,VALID,919.528,VALID,0,VALID,72.8036,VALID,338.762,VALID,24.5973,VALID,52,VALID,0,
2016-06-03, 09:58:04,VALID,919.521,VALID,0,VALID,74.7476,VALID,321.142,VALID,24.7321,VALID,52,VALID,0,
2016-06-03, 09:59:04,VALID,919.527,VALID,0,VALID,75.5099,VALID,317.059,VALID,24.8511,VALID,52,VALID,0,
2016-06-03, 10:00:04,VALID,919.509,VALID,0,VALID,76.5086,VALID,318.67,VALID,24.9488,VALID,53,VALID,0,
2016-06-03, 10:01:04,VALID,919.535,VALID,0,VALID,75.7386,VALID,332.853,VALID,25.1422,VALID,52,VALID,0,
2016-06-03, 10:02:04,VALID,919.533,VALID,0,VALID,72.0794,VALID,405.375,VALID,25.2398,VALID,5,VALID,0,
2016-06-03, 10:03:04,VALID,919.528,VALID,0,VALID,72.7579,VALID,390.226,VALID,25.1812,VALID,5,VALID,0,
2016-06-03, 10:04:04,VALID,919.504,VALID,0,VALID,72.8646,VALID,364.44,VALID,25.0836,VALID,5,VALID,0,
2016-06-03, 10:05:04,VALID,919.477,VALID,0,VALID,71.2637,VALID,372.606,VALID,25.0621,VALID,5,VALID,0,
2016-06-03, 10:06:04,VALID,919.467,VALID,0,VALID,70.4937,VALID,373.143,VALID,25.1422,VALID,5,VALID,0,
2016-06-03, 10:07:04,VALID,919.502,VALID,0,VALID,66.5677,VALID,348.217,VALID,25.3179,VALID,5,VALID,0,
2016-06-03, 10:08:04,VALID,919.498,VALID,0,VALID,67.856,VALID,337.365,VALID,25.5523,VALID,5,VALID,0,
2016-06-03, 10:09:04,VALID,919.512,VALID,0,VALID,67.3681,VALID,339.084,VALID,25.7476,VALID,5,VALID,0,
2016-06-03, 10:10:04,VALID,919.526,VALID,0,VALID,66.7735,VALID,369.06,VALID,25.8062,VALID,7,VALID,0,
2016-06-03, 10:11:04,VALID,919.516,VALID,0,VALID,63.2896,VALID,393.987,VALID,25.7066,VALID,7,VALID,0,
2016-06-03, 10:12:04,VALID,919.517,VALID,0,VALID,65.1268,VALID,436.426,VALID,25.689,VALID,7,VALID,0,
2016-06-03, 10:13:04,VALID,919.551,VALID,0,VALID,63.3887,VALID,746.394,VALID,25.7847,VALID,7,VALID,0,
2016-06-03, 10:14:04,VALID,919.55,VALID,0,VALID,62.9084,VALID,674.838,VALID,25.9409,VALID,7,VALID,0,
2016-06-03, 10:15:04,VALID,919.561,VALID,0,VALID,62.329,VALID,759.502,VALID,26.2925,VALID,7,VALID,0,
2016-06-03, 10:16:04,VALID,919.584,VALID,0,VALID,61.399,VALID,869.199,VALID,26.4898,VALID,86,VALID,0,
2016-06-03, 10:17:04,VALID,919.569,VALID,0,VALID,66.8802,VALID,822.677,VALID,26.3336,VALID,142,VALID,0,
2016-06-03, 10:18:04,VALID,919.577,VALID,0,VALID,63.6708,VALID,407.954,VALID,26.273,VALID,165,VALID,0,
2016-06-03, 10:19:04,VALID,919.586,VALID,0,VALID,66.8497,VALID,376.259,VALID,26.0972,VALID,151,VALID,0,
2016-06-03, 10:20:04,VALID,919.595,VALID,0,VALID,67.917,VALID,360.358,VALID,26.019,VALID,165,VALID,0,
2016-06-03, 10:21:04,VALID,919.566,VALID,0,VALID,67.8484,VALID,350.043,VALID,25.7456,VALID,165,VALID,0,
2016-06-03, 10:22:04,VALID,919.58,VALID,0,VALID,72.2624,VALID,344.779,VALID,25.4546,VALID,166,VALID,0,
2016-06-03, 10:23:04,VALID,919.563,VALID,0,VALID,72.1556,VALID,350.151,VALID,25.3746,VALID,189,VALID,0,
2016-06-03, 10:24:04,VALID,919.536,VALID,0,VALID,68.8699,VALID,352.085,VALID,25.3746,VALID,185,VALID,0,
2016-06-03, 10:25:04,VALID,919.515,VALID,0,VALID,70.1202,VALID,353.052,VALID,25.357,VALID,148,VALID,0,
2016-06-03, 10:26:04,VALID,919.505,VALID,0,VALID,69.9448,VALID,385.069,VALID,25.357,VALID,148,VALID,0,
2016-06-03, 10:27:04,VALID,919.501,VALID,0,VALID,65.8663,VALID,508.626,VALID,25.396,VALID,148,VALID,0,
2016-06-03, 10:28:04,VALID,919.48,VALID,0,VALID,68.1762,VALID,435.781,VALID,25.5523,VALID,148,VALID,0,
2016-06-03, 10:29:04,VALID,919.464,VALID,0,VALID,65.7215,VALID,517.437,VALID,25.7671,VALID,148,VALID,0,
2016-06-03, 10:30:04,VALID,919.442,VALID,0,VALID,62.2147,VALID,777.766,VALID,25.9214,VALID,148,VALID,0,
2016-06-03, 10:31:04,VALID,919.433,VALID,0,VALID,61.9098,VALID,638.308,VALID,25.8823,VALID,148,VALID,0,
2016-06-03, 10:32:04,VALID,919.413,VALID,0,VALID,63.2286,VALID,919.374,VALID,25.98,VALID,148,VALID,0,
2016-06-03, 10:33:04,VALID,919.43,VALID,0,VALID,60.4003,VALID,883.596,VALID,26.275,VALID,148,VALID,0,
2016-06-03, 10:34:04,VALID,919.367,VALID,0,VALID,60.042,VALID,588.24,VALID,26.566,VALID,148,VALID,0,
2016-06-03, 10:35:04,VALID,919.361,VALID,0,VALID,58.3573,VALID,438.467,VALID,26.8785,VALID,148,VALID,0,
2016-06-03, 10:36:04,VALID,919.365,VALID,0,VALID,59.2034,VALID,703.525,VALID,27.0348,VALID,153,VALID,0,
2016-06-03, 10:37:04,VALID,919.361,VALID,0,VALID,56.7106,VALID,841.694,VALID,27.1716,VALID,247,VALID,0,
2016-06-03, 10:38:04,VALID,919.361,VALID,0,VALID,57.0841,VALID,868.339,VALID,27.1325,VALID,246,VALID,0,
2016-06-03, 10:39:04,VALID,919.308,VALID,0,VALID,56.9622,VALID,721.897,VALID,27.1521,VALID,247,VALID,0,
2016-06-03, 10:40:04,VALID,919.293,VALID,0,VALID,52.228,VALID,642.176,VALID,27.2107,VALID,246,VALID,0,
2016-06-03, 10:41:04,VALID,919.282,VALID,0,VALID,53.3105,VALID,565.785,VALID,27.1325,VALID,246,VALID,0,
2016-06-03, 10:42:04,VALID,919.253,VALID,0,VALID,52.0832,VALID,805.379,VALID,27.2868,VALID,246,VALID,0,
2016-06-03, 10:43:04,VALID,919.204,VALID,0,VALID,54.7742,VALID,750.047,VALID,27.404,VALID,247,VALID,0,
2016-06-03, 10:44:04,VALID,919.221,VALID,0,VALID,50.5204,VALID,772.824,VALID,27.2086,VALID,257,VALID,0,
2016-06-03, 10:45:04,VALID,919.192,VALID,0,VALID,53.4249,VALID,853.083,VALID,26.9546,VALID,249,VALID,0,
2016-06-03, 10:46:04,VALID,919.156,VALID,0,VALID,52.7007,VALID,812.792,VALID,26.9567,VALID,259,VALID,0,
2016-06-03, 10:47:04,VALID,919.129,VALID,0,VALID,55.7424,VALID,788.94,VALID,26.9958,VALID,259,VALID,0,
2016-06-03, 10:48:04,VALID,919.115,VALID,0,VALID,54.5227,VALID,635.407,VALID,27.0544,VALID,269,VALID,0.123047,
2016-06-03, 10:49:04,VALID,919.08,VALID,0,VALID,55.4299,VALID,644.432,VALID,26.9567,VALID,266,VALID,0,
2016-06-03, 10:50:04,VALID,919.102,VALID,0,VALID,53.3487,VALID,807.528,VALID,26.7984,VALID,263,VALID,0,
2016-06-03, 10:51:04,VALID,919.104,VALID,0,VALID,52.0069,VALID,704.384,VALID,26.6832,VALID,258,VALID,0,
2016-06-03, 10:52:04,VALID,919.072,VALID,0,VALID,52.9751,VALID,693.855,VALID,26.5855,VALID,252,VALID,0,
2016-06-03, 10:53:04,VALID,919.065,VALID,0,VALID,56.2303,VALID,603.497,VALID,26.605,VALID,287,VALID,0.00234375,
2016-06-03, 10:54:04,VALID,919.025,VALID,0,VALID,56.6344,VALID,726.517,VALID,26.5835,VALID,229,VALID,0.00195313,
2016-06-03, 10:55:04,VALID,918.976,VALID,0,VALID,53.2038,VALID,738.765,VALID,26.6812,VALID,256,VALID,0,
2016-06-03, 10:56:04,VALID,918.999,VALID,0,VALID,54.7742,VALID,701.161,VALID,26.8395,VALID,255,VALID,0,
2016-06-03, 10:57:04,VALID,918.947,VALID,0,VALID,55.1707,VALID,785.18,VALID,27.0328,VALID,256,VALID,0,
2016-06-03, 10:58:04,VALID,918.92,VALID,0,VALID,54.9267,VALID,770.246,VALID,27.1891,VALID,256,VALID,0,
2016-06-03, 10:59:04,VALID,918.914,VALID,0,VALID,55.8873,VALID,761.221,VALID,27.3063,VALID,326,VALID,0,
2016-06-03, 11:00:04,VALID,918.863,VALID,0,VALID,55.5366,VALID,779.271,VALID,27.3475,VALID,252,VALID,0,
2016-06-03, 11:01:04,VALID,918.884,VALID,0,VALID,59.9658,VALID,771.642,VALID,27.2086,VALID,252,VALID,0.251953,
2016-06-03, 11:02:04,VALID,918.848,VALID,0,VALID,58.746,VALID,735.327,VALID,27.1109,VALID,251,VALID,0,
2016-06-03, 11:03:04,VALID,918.851,VALID,0,VALID,56.2227,VALID,756.171,VALID,26.9567,VALID,241,VALID,0.205859,
2016-06-03, 11:04:04,VALID,918.828,VALID,0,VALID,55.4527,VALID,660.548,VALID,26.7593,VALID,255,VALID,0,
2016-06-03, 11:05:04,VALID,918.795,VALID,0,VALID,55.8796,VALID,663.986,VALID,26.6421,VALID,227,VALID,0,
2016-06-03, 11:06:04,VALID,918.807,VALID,0,VALID,57.9151,VALID,696.434,VALID,26.7788,VALID,236,VALID,0,
2016-06-03, 11:07:04,VALID,918.799,VALID,0,VALID,55.9178,VALID,632.291,VALID,26.8765,VALID,256,VALID,0,
2016-06-03, 11:08:04,VALID,918.757,VALID,0,VALID,55.6433,VALID,763.262,VALID,26.6987,VALID,248,VALID,1.03633,
2016-06-03, 11:09:04,VALID,918.774,VALID,0,VALID,56.2684,VALID,769.816,VALID,26.564,VALID,227,VALID,0,
2016-06-03, 11:10:04,VALID,918.749,VALID,0,VALID,55.7958,VALID,764.229,VALID,26.6812,VALID,204,VALID,0,
2016-06-03, 11:11:04,VALID,918.75,VALID,0,VALID,56.2608,VALID,737.476,VALID,26.9156,VALID,205,VALID,0,
2016-06-03, 11:12:04,VALID,918.729,VALID,0,VALID,56.8173,VALID,722.219,VALID,27.1109,VALID,248,VALID,0.470703,
2016-06-03, 11:13:04,VALID,918.756,VALID,0,VALID,55.346,VALID,745.534,VALID,27.0307,VALID,246,VALID,0,
2016-06-03, 11:14:04,VALID,918.78,VALID,0,VALID,54.3778,VALID,722.864,VALID,27.0503,VALID,258,VALID,0,
2016-06-03, 11:15:04,VALID,918.737,VALID,0,VALID,55.6967,VALID,712.872,VALID,27.15,VALID,334,VALID,0,
2016-06-03, 11:16:04,VALID,918.732,VALID,0,VALID,56.2761,VALID,724.583,VALID,27.4235,VALID,351,VALID,0,
2016-06-03, 11:17:04,VALID,918.748,VALID,0,VALID,54.7209,VALID,721.897,VALID,27.7557,VALID,352,VALID,0,
2016-06-03, 11:18:04,VALID,918.717,VALID,0,VALID,53.4325,VALID,711.583,VALID,27.9511,VALID,260,VALID,0,
2016-06-03, 11:19:04,VALID,918.71,VALID,0,VALID,54.294,VALID,717.922,VALID,28.0097,VALID,212,VALID,0,
2016-06-03, 11:20:04,VALID,918.701,VALID,0,VALID,51.9841,VALID,728.881,VALID,28.0488,VALID,305,VALID,0,
2016-06-03, 11:21:04,VALID,918.676,VALID,0,VALID,53.3563,VALID,747.253,VALID,28.0683,VALID,304,VALID,0,
2016-06-03, 11:22:04,VALID,918.715,VALID,0,VALID,50.711,VALID,759.287,VALID,28.0488,VALID,271,VALID,0.249219,
2016-06-03, 11:23:04,VALID,918.681,VALID,0,VALID,53.2648,VALID,766.378,VALID,27.8339,VALID,256,VALID,0,
2016-06-03, 11:24:04,VALID,918.689,VALID,0,VALID,55.4146,VALID,752.195,VALID,27.8317,VALID,248,VALID,0,